This demonstration page uses our WeatherBlox Daily Observations layout. Learn more.

Left ArrowRight Arrow

39.12711, -84.51439

Hourly Observations for October 30, 2020

Temp ( °F °C ) Dew Point ( °F °C ) Humidity (%) Winds ( mph kmh ) Pressure ( in mb ) Visibility ( mi km ) Precip ( " mm )
12:53 am 00:53 Cloudy 47 8.3 43 6.1 86 86 NNW 12 19 29.93 1014 10 16 0.00 0.00
1:53 am 01:53 Cloudy 47 8.3 42 5.6 83 83 NNW 9 15 29.96 1015 10 16 0.00 0.00
2:53 am 02:53 Cloudy 47 8.3 40 4.4 77 77 NNW 7 11 29.98 1015 10 16 0.00 0.00
3:53 am 03:53 Cloudy 46 7.8 41 5 83 83 NNW 10 17 30.01 1016 10 16 0.00 0.00
4:53 am 04:53 Cloudy 46 7.8 40 4.4 79 79 NW 10 17 30.03 1017 10 16 0.00 0.00
5:53 am 05:53 Cloudy 45 7.2 39 3.9 80 80 NW 7 11 30.06 1018 10 16 0.00 0.00
6:46 am 06:46 Cloudy 45 7.2 38 3.3 77 77 NW 8 13 30.10 1019 10 16 0.00 0.00
6:53 am 06:53 Cloudy 45 7.2 38 3.3 77 77 NW 7 11 30.09 1019 10 16 0.00 0.00
7:53 am 07:53 Cloudy 44 6.7 37 2.8 76 76 NW 9 15 30.12 1020 10 16 0.00 0.00
8:53 am 08:53 Cloudy 44 6.7 37 2.8 76 76 NW 8 13 30.16 1021 10 16 0.00 0.00
9:53 am 09:53 Mostly Cloudy 44 6.7 37 2.8 76 76 N 9 15 30.20 1023 10 16 0.00 0.00
10:53 am 10:53 Mostly Cloudy 48 8.9 37 2.8 66 66 NW 6 9 30.23 1024 10 16 0.00 0.00
11:53 am 11:53 Cloudy 48 8.9 35 1.7 61 61 NW 9 15 30.25 1025 10 16 0.00 0.00
12:53 pm 12:53 Mostly Cloudy 51 10.6 36 2.2 56 56 NNW 9 15 30.26 1025 10 16 0.00 0.00
1:53 pm 13:53 Mostly Cloudy 48 8.9 35 1.7 61 61 N 9 15 30.27 1025 10 16 0.00 0.00
2:53 pm 14:53 Mostly Cloudy 48 8.9 32 0 54 54 VRB 7 11 30.27 1025 10 16 0.00 0.00
3:53 pm 15:53 Mostly Cloudy 49 9.4 33 0.6 55 55 N 6 9 30.26 1025 10 16 0.00 0.00
4:53 pm 16:53 Cloudy 49 9.4 32 0 52 52 WNW 5 7 30.28 1025 10 16 0.00 0.00
5:53 pm 17:53 Cloudy 49 9.4 32 0 52 52 NW 5 7 30.29 1026 10 16 0.00 0.00
6:53 pm 18:53 Mostly Cloudy 46 7.8 32 0 58 58 NW 5 7 30.30 1026 10 16 0.00 0.00
7:53 pm 19:53 Partly Cloudy 45 7.2 32 0 61 61 NW 5 7 30.32 1027 10 16 0.00 0.00
8:53 pm 20:53 Mostly Clear 38 3.3 35 1.7 89 89 SSE 3 6 30.34 1028 10 16 0.00 0.00
9:53 pm 21:53 Clear 37 2.8 34 1.1 89 89 Calm 30.35 1028 10 16 0.00 0.00
10:53 pm 22:53 Clear 37 2.8 35 1.7 93 93 Calm 30.37 1029 9 14 0.00 0.00
11:16 pm 23:16 Clear with Mist and Fog 36 2.2 35 1.7 97 97 Calm 30.39 1029 2 3 0.00 0.00
11:25 pm 23:25 Clear with Mist and Fog 35 1.7 34 1.1 96 96 Calm 30.39 1029 3 5 0.00 0.00
11:32 pm 23:32 Clear with Mist and Fog 35 1.7 34 1.1 96 96 Calm 30.39 1029 2 3 0.00 0.00
11:41 pm 23:41 Clear with Mist and Fog 35 1.7 33 0.6 93 93 Calm 30.39 1029 6 10 0.00 0.00
11:51 pm 23:51 Clear with Mist and Fog 36 2 34 1 93 93 Calm 30.40 1030 2 3 0.00 0.00
11:53 pm 23:53 Clear with Mist and Fog 35 1.7 34 1.1 96 96 Calm 30.38 1029 2 2 0.00 0.00

Powered by AerisWeather